STARLINK-11166, 60062

Orbit data source: Space-Track

STARLINK-11166, 60062 is a payload satellite owned by SpaceX/Seattle (US) in LEO that was launched on Wed, 19 Jun 2024 UTC via an FALCON 9 launch vehicle from the Air Force Western Test Range (AFWTR). Payload-class satellites include a variety of spacecraft equipped with specific instruments for various scientific and technological missions. These include communications satellites like Starlink; space stations such as the ISS; scientific satellites like the Hubble; Earth observation satellites from companies like Planet Labs, Umbra, and HawkEye 360; GPS; miniature CubeSats for education and research; and military/defense satellites.

Loading next visibility...
Identifier
60062, 2024-113D
Orbit
LEO
Last TLE update
20 hours ago
Origin
Manufacturer
SpaceX/Seattle
Mission
Operational Commercial Communications
Bus & Motor
STARLINK V2M, Unknown motor
Mass
730 kg wet, ~700 kg dry
Launch date (UTC)
2024-06-19 (11 months ago)
Launch vehicle
FALCON 9
Launch site
Air Force Western Test Range (AFWTR)
Object type
Payload
Rocket body
Debris
Shape & HBR
Box + 2 Pan, 29 m
Radar Cross Section
36.964 m², Large (>1 m²)

Expand to show TLE details & history

TLE from 20 hours ago
0 STARLINK-11166
1 60062U 24113D   25131.01785813  .00031800  00000-0  26669-3 0  9994
2 60062  53.1576 243.2387 0001572  87.0465 273.0732 15.69676600 52329
Epoch: 2025-05-11T00:25Z
Definitive object data (Epoch: 2025-05-11T00:25:42.942Z)
Latitude
-0.00008°
Longitude
7.75839°
Altitude
360.681 km
Speed
7.694 km/s
True Right ascension
16h 12m 57s
True Declination
0° 00' 00"
Sunlit
Object was in full shadow at TLE epoch
Visualization TLE readout
Latitude
-53.01165°
Longitude
-77.79843°
Altitude
379.131 km
Speed
7.681 km/s
Apparent Right ascension
13h 42m 25s
Apparent Declination
-55° 07' 14"
Sunlit
Object is in full shadow
Visualization observer readout
Local Sidereal Time
04:14:53
Azimuth
133.969° SE
Elevation
-60.629°
Doppler factor
1
Orbital elements
Apogee altitude
361.143 km
Perigee altitude
359.024 km
Semi-major axis
6,738.22 km
Eccentricity
0.0001572
Inclination
53.1576°
RAAN
243.2387°
Arg. of periapsis
87.0465°
True anomaly
273.05521°
Mean anomaly
273.0732°
Eccentric anomaly
273.06421°
Mean motion
3.92397 °/min
BSTAR
0.00026669
Orbital period
91.74 mins
Loading maneuver chart data...
Loading SW <> Apogee altitude chart data...
Loading historical data...
Loading historical data...
Loading historical data...
Loading historical data...
Loading historical data...
Loading historical data...
Loading historical data...

STARLINK-11166 Visibility forecast

Observer location: undefined°, undefined°

Span
Click to sort rows by Start time (UTC) header in descending order
Start Az.
Max El. time (UTC)
Max El. Az.
Max El.
End time (UTC)
End Az.
4 mins2025-05-12 16:39:57.399Z311.104° NW2025-05-12 16:41:57.399Z123.878° SE43.265°2025-05-12 16:43:57.399Z129.863° SE
|